Regional Weather Roundup
Issued by NWS Albany, NY

Home | Current Version | Previous Version | Text Only | Print | Product List | Glossary On
Versions: 1 2 3 4 5 6 7 8 9 10 11 12 13 14 15 16 17 18 19 20 21 22 23 24 25 26 27 28 29 30 31 32 33 34 35 36 37 38 39 40 41 42 43 44 45 46 47 48 49 50
000
ASUS41 KALY 281910
RWRALY

NEW YORK STATE HOURLY WEATHER ROUNDUP
NATIONAL WEATHER SERVICE ALBANY NY
200 PM EST WED JAN 28 2015

NOTE: "FAIR" INDICATES FEW OR NO CLOUDS BELOW 12,000 FEET WITH NO
SIGNIFICANT WEATHER AND/OR NO OBSTRUCTIONS TO VISIBILITY.

NYZ032-033-038>043-046>054-057>066-NYZ062>081-282000-
EAST


CITY           SKY/WX    TMP DP  RH WIND       PRES   REMARKS
ALBANY         MOSUNNY   21   1  41 N12       30.13S WCI   9
GLENS FALLS    SUNNY     18   4  54 SE3       30.12S
POUGHKEEPSIE   SUNNY     28   7  41 NW8       30.07R WCI  20
NEWBURGH       SUNNY     30  12  47 N12       30.05S WCI  21
MONTGOMERY     SUNNY     32   9  38 NE7       30.04R WCI  26
WHITE PLAINS   SUNNY     29   9  43 NW18G25   30.02R WCI  16
ISLIP          MOSUNNY   27  11  51 N22G33    30.02R WCI  13
NEW YORK CITY  MOSUNNY   31  10  41 N13       30.05S WCI  21
CENTRAL PARK   SUNNY     31   8  38 VRB7      30.08R WCI  24
$$

NYZ005>009-017-018-044>046-055-056-282000-
CENTRAL


CITY           SKY/WX    TMP DP  RH WIND       PRES   REMARKS
FULTON         SUNNY     21   5  50 NW10      30.24S WCI  10
SYRACUSE       SUNNY     22   5  48 W13       30.22S WCI  10
ROME           SUNNY     20   1  43 W8        30.20F WCI  10
ELMIRA         SUNNY     28   3  34 NW13      30.18F WCI  17
BINGHAMTON     SUNNY     21   2  43 NW13G21   30.10R WCI   9
MONTICELLO     SUNNY     25   3  39 NW13G22   30.04S WCI  13
$$

NYZ026>034-041>043-282000-
NORTH


CITY           SKY/WX    TMP DP  RH WIND       PRES   REMARKS
WATERTOWN      SUNNY     18  -3  39 VRB3      30.25S
FORT DRUM      NOT AVBL
MASSENA        SUNNY     15  -7  37 W9        30.24S WCI   3
SARANAC LAKE   SUNNY     19  -7  31 VRB7      30.04R WCI  10
PLATTSBURGH    SUNNY     19  -1  41 N10G17    30.15S WCI   7
$$

NYZ001>004-010>016-019>021-282000-
WEST


CITY           SKY/WX    TMP DP  RH WIND       PRES   REMARKS
NIAGARA FALLS  MOSUNNY   23  11  60 W5        30.28F WCI  17
BUFFALO        MOSUNNY   21  12  68 SW10      30.28F WCI  10
DUNKIRK        SUNNY     20  11  68 W8        30.30F WCI  10
JAMESTOWN      SUNNY     21   7  53 CALM      30.21F
WELLSVILLE     SUNNY     23   1  38 NW9       30.16S WCI  13
ROCHESTER      SUNNY     25   9  50 W13       30.27S WCI  14
PENN YAN       SUNNY     25   5  42 NW9G18    30.21S WCI  15
$$

             KEY
       WCI = WIND CHILL INDEX
       VSB = VISIBILITY
       HX  = HEAT INDEX
$$


USA.gov is the U.S. government's official web portal to all federal, state and local government web resources and services.